Location: Couloutre
(47.4081°N, 3.2259°E)
Time: 08:30:39
(UTC+00:00)

STARLINK-1020 - Pass Details

Date: 27 February 2020
Orbit: 548 x 551 km, 53.0° (Epoch: 01 April)

Event Time Altitude Azimuth Distance (km) Brightness Sun altitude
Rises 17:54:48 0° 247° (WSW) 2,710 8.9 -5.3°
Reaches altitude 10° 17:57:02 10° 249° (WSW) 1,819 7.8 -5.7°
Maximum altitude 18:01:10 74° 334° (NNW) 575 3.8 -6.3°
Drops below altitude 10° 18:05:19 10° 61° (ENE) 1,828 5.7 -7.0°
Enters shadow 18:05:56 - 61° (ENE) 2,074 6.0 -7.2°
